Temp
63 63 62 62 62 62 62 62 62 62 62 62 62 62 62 62 61 64 68 80 79 78 78 86 86 86 85 79 82 79 65 62 69 70 71 76 75 78 83 78 81 89 86 86 90
62 62 62 62 62 61 61 61 62 62 62 62 62 62 62 62 64 70 81 77 78 78 82 81 81 84 76 78 78 74 62 67 79 78 73 78 78 80 80 77 80 84 89 91 91
62 62 62 62 62 61 61 61 61 62 62 62 62 62 62 62 65 78 79 76 78 78 84 84 84 83 75 75 78 76 69 79 81 77 76 73 70 72 74 74 82 81 85 88 87
61 62 62 61 61 61 61 61 61 62 62 62 62 62 62 65 63 80 78 78 78 81 83 83 81 75 69 70 81 69 81 83 83 79 74 68 71 66 70 77 87 87 88 87 87
61 61 61 61 61 61 61 61 61 61 62 62 62 63 62 66 73 83 78 78 84 82 82 79 78 75 70 76 80 74 77 79 74 73 69 71 69 69 69 78 89 90 90 86 84
60 60 61 61 61 61 61 60 60 61 61 62 63 62 64 65 90 86 84 84 86 83 84 83 81 84 78 77 74 79 80 78 73 73 76 70 69 69 72 75 82 88 84 83 83
60 60 60 60 61 61 61 60 60 61 62 63 64 70 71 74 93 89 89 87 89 90 86 90 88 82 81 77 83 80 73 77 69 69 72 80 71 70 82 83 84 83 82 82 81
60 59 60 60 61 61 61 61 60 62 63 64 65 68 69 91 91 91 90 90 92 94 92 92 90 82 76 81 82 74 71 61 76 74 72 76 63 72 84 83 79 81 82 80 78
59 59 59 60 61 61 60 60 61 64 64 65 63 64 72 88 90 95 93 90 93 93 91 101 85 76 79 70 65 66 60 64 73 81 73 73 70 81 84 82 79 78 79 78 76
59 58 58 59 60 60 59 61 65 64 65 76 79 70 80 84 93 96 95 96 90 88 85 80 73 67 67 63 54 60 62 65 68 75 77 71 69 79 82 81 79 78 78 77 75
59 58 58 59 60 60 59 73 74 70 70 75 78 81 88 96 97 91 95 90 88 80 68 75 63 59 67 71 73 72 69 69 71 78 74 71 73 77 79 78 77 77 76 76 74
58 58 58 58 58 60 57 69 80 81 71 85 86 87 92 95 86 89 93 81 78 69 74 68 62 73 78 78 76 73 69 66 72 79 74 69 68 74 78 76 78 78 77 75 73
58 58 58 57 60 67 78 81 90 86 67 78 85 85 87 89 83 84 88 83 76 71 71 65 73 83 80 76 75 69 65 68 68 74 73 70 63 69 77 79 78 79 80 75 73
58 58 57 56 67 73 74 88 90 84 58 72 81 86 88 87 81 94 92 84 77 72 74 71 81 80 74 73 73 63 76 77 75 66 56 68 51 64 70 74 76 74 76 73 73
58 58 57 56 60 67 79 87 89 76 45 80 82 93 89 81 82 84 92 84 75 77 75 71 75 73 70 74 78 70 77 72 73 63 59 64 54 62 67 66 69 73 74 74 74
57 57 57 64 64 73 81 87 79 56 49 77 83 79 76 81 83 85 84 86 85 76 78 76 83 79 77 81 80 80 73 69 66 59 49 58 56 62 62 67 70 73 76 76 74
56 57 55 66 63 81 79 73 54 49 77 74 76 81 76 75 78 79 76 69 64 58 61 72 74 77 82 71 75 72 59 47 46 47 48 64 58 67 68 74 74 74 76 76 75
55 54 58 71 74 78 73 61 47 66 71 83 81 79 73 77 76 78 72 66 72 69 63 59 58 74 81 73 65 63 60 48 42 44 50 64 56 63 72 75 75 76 75 77 73
53 62 67 74 78 77 62 49 54 66 78 75 78 71 70 77 74 73 70 69 73 72 60 58 63 79 82 80 73 65 57 65 54 53 48 54 64 69 73 72 75 75 75 70 72
52 57 64 78 81 73 57 52 62 76 76 75 66 71 63 70 69 68 68 75 75 79 73 67 58 74 79 79 74 66 69 54 51 41 40 51 54 55 62 66 71 70 71 70 70
52 56 75 83 77 64 53 58 68 78 78 72 69 67 68 67 68 67 69 76 79 78 75 67 61 64 72 64 64 63 58 58 56 52 44 42 50 65 66 67 67 69 72 70 70
57 54 78 81 60 60 58 65 66 74 79 76 73 69 66 67 65 65 67 73 79 76 69 70 60 54 62 72 76 69 64 59 47 48 50 48 48 70 70 71 70 70 73 71 72
54 60 76 73 54 58 64 70 74 73 74 74 71 72 70 64 58 65 68 78 79 70 61 63 54 48 54 61 68 63 67 64 58 54 49 45 46 68 71 71 72 70 71 72 71
54 53 62 64 65 60 59 62 65 77 76 77 72 71 66 63 65 62 67 76 78 75 66 66 58 53 47 55 61 59 65 64 57 47 50 53 57 65 67 67 69 71 73 72 70
54 54 61 54 61 62 61 63 63 63 72 74 67 68 64 56 60 60 67 70 76 68 68 62 53 55 60 66 68 67 67 67 63 60 54 59 58 65 67 67 68 70 71 74 73
51 54 58 56 59 59 57 58 61 65 66 64 61 69 67 58 61 59 64 60 61 65 59 60 51 57 56 66 66 63 67 67 68 68 64 66 61 69 71 70 67 70 71 70 68
59 59 55 53 56 56 57 61 64 67 69 71 68 65 62 65 67 64 62 64 63 60 59 57 53 51 46 61 61 54 62 66 67 67 63 55 60 65 66 67 66 69 69 66 65
MSLP
1018.10 1017.69 1017.09 1016.78 1016.42 1016.02 1015.69 1015.43 1015.18 1014.95 1014.83 1014.62 1014.47 1014.26 1013.99 1013.66 1012.96 1012.84 1011.62 1009.37 1008.88 1008.52 1008.61 1008.18 1007.88 1007.43 1007.10 1007.03 1006.38 1006.28 1007.14 1007.37 1006.78 1006.85 1007.66 1008.66 1008.80 1009.94 1009.37 1009.14 1009.41 1009.42 1010.10 1010.50 1010.69
1018.34 1017.72 1017.16 1016.78 1016.38 1015.82 1015.56 1015.11 1014.82 1014.64 1014.55 1014.49 1014.34 1014.15 1013.94 1013.69 1013.03 1011.51 1008.83 1008.59 1008.49 1008.52 1008.41 1008.27 1007.88 1007.19 1007.29 1006.59 1006.41 1006.27 1006.81 1006.68 1006.15 1007.51 1009.09 1009.21 1009.82 1010.64 1010.67 1010.68 1010.41 1009.88 1010.40 1010.55 1010.59
1018.42 1017.74 1017.18 1016.62 1016.17 1015.68 1015.25 1014.73 1014.41 1014.38 1014.29 1014.34 1014.25 1014.09 1013.95 1013.71 1012.62 1009.30 1007.63 1008.42 1008.43 1008.38 1008.23 1008.00 1007.30 1007.08 1006.84 1006.31 1005.71 1005.72 1006.17 1005.99 1007.55 1008.41 1009.56 1010.48 1011.22 1011.38 1012.37 1011.35 1009.94 1010.11 1010.28 1010.46 1010.77
1018.45 1017.79 1017.15 1016.63 1016.00 1015.50 1015.02 1014.53 1014.21 1014.15 1014.25 1014.29 1014.27 1014.14 1013.90 1013.39 1011.17 1008.18 1007.95 1008.26 1008.49 1008.25 1008.12 1007.32 1006.76 1006.58 1006.37 1006.09 1004.58 1004.97 1005.36 1006.18 1008.17 1008.63 1009.91 1011.39 1011.59 1013.82 1013.99 1012.17 1009.70 1010.17 1010.57 1010.59 1010.92
1018.45 1017.74 1017.14 1016.55 1015.99 1015.47 1014.84 1014.36 1014.02 1014.06 1014.29 1014.28 1014.19 1014.06 1013.76 1012.55 1009.51 1007.80 1008.05 1008.23 1008.14 1008.17 1007.85 1007.43 1007.11 1006.48 1006.14 1005.45 1004.42 1004.20 1004.89 1006.39 1008.02 1009.02 1009.72 1010.82 1011.63 1012.11 1012.90 1012.82 1010.55 1010.22 1010.70 1010.79 1011.16
1018.35 1017.74 1017.09 1016.46 1016.03 1015.41 1014.80 1014.31 1013.87 1013.97 1014.20 1014.18 1014.05 1014.00 1013.37 1010.73 1007.10 1007.46 1007.88 1008.16 1007.94 1007.92 1007.18 1006.82 1006.44 1005.64 1005.15 1004.86 1004.34 1004.03 1004.53 1006.35 1007.98 1009.32 1009.54 1010.38 1012.25 1011.49 1011.89 1012.44 1010.78 1010.74 1010.96 1011.25 1011.67
1018.37 1017.80 1017.05 1016.48 1015.92 1015.26 1014.73 1014.22 1013.79 1013.71 1013.93 1013.98 1013.90 1013.51 1012.14 1008.69 1006.65 1006.93 1007.38 1007.37 1007.12 1007.16 1007.03 1006.07 1005.48 1005.68 1005.47 1005.05 1004.09 1004.05 1004.80 1005.44 1007.36 1008.60 1008.93 1009.02 1011.82 1011.17 1010.19 1010.52 1010.64 1010.93 1011.15 1011.44 1012.05
1018.55 1017.89 1017.10 1016.41 1015.67 1015.05 1014.49 1013.77 1013.36 1013.38 1013.62 1013.65 1013.71 1013.10 1010.41 1006.70 1006.17 1006.60 1006.71 1006.76 1006.50 1006.30 1006.18 1005.82 1005.48 1005.69 1005.59 1005.04 1004.49 1004.56 1005.29 1006.06 1005.89 1006.98 1008.18 1007.81 1009.95 1010.45 1008.97 1009.83 1010.65 1011.21 1011.63 1012.25 1012.79
1018.87 1018.01 1017.21 1016.38 1015.35 1014.86 1014.04 1013.06 1012.61 1012.84 1013.25 1013.27 1013.32 1012.40 1008.97 1006.30 1006.21 1005.99 1006.17 1006.31 1006.16 1006.30 1006.12 1005.95 1006.11 1006.44 1005.94 1006.08 1005.98 1005.56 1006.16 1006.18 1005.57 1005.19 1006.83 1007.52 1008.70 1008.74 1008.98 1009.62 1010.47 1011.24 1011.94 1012.70 1013.46
1019.02 1018.14 1017.10 1016.06 1015.14 1014.66 1013.64 1012.37 1012.19 1012.43 1012.82 1012.53 1011.77 1011.31 1008.16 1006.30 1005.80 1005.69 1005.68 1005.88 1006.10 1006.27 1006.51 1006.57 1006.96 1007.13 1007.05 1007.02 1006.97 1006.25 1006.09 1005.65 1005.09 1004.95 1005.43 1006.49 1007.56 1008.00 1008.17 1008.90 1010.08 1010.99 1011.84 1012.82 1013.82
1019.08 1018.16 1017.21 1016.09 1014.89 1014.50 1013.46 1012.13 1012.37 1012.38 1011.56 1010.67 1009.72 1008.42 1006.68 1005.46 1005.30 1005.76 1005.65 1005.76 1005.99 1006.37 1006.91 1006.85 1007.58 1007.60 1007.31 1006.83 1006.23 1005.99 1005.97 1005.69 1004.82 1004.39 1005.30 1006.17 1007.03 1007.48 1007.75 1008.46 1009.51 1010.28 1011.28 1012.34 1013.29
1019.25 1018.41 1017.58 1016.15 1014.71 1013.62 1013.96 1013.02 1011.13 1010.36 1009.12 1008.55 1007.72 1007.19 1006.07 1005.52 1005.27 1005.54 1005.58 1006.18 1006.53 1006.83 1006.86 1007.22 1007.07 1006.52 1006.23 1006.01 1005.76 1005.65 1005.58 1005.32 1005.07 1004.50 1005.18 1006.05 1006.84 1007.21 1007.28 1007.81 1008.43 1009.32 1010.41 1011.75 1013.19
1019.38 1018.54 1017.58 1016.19 1014.08 1013.01 1013.06 1011.46 1009.76 1009.46 1009.35 1006.74 1005.83 1005.75 1005.23 1005.01 1005.16 1005.17 1005.48 1005.95 1006.38 1006.74 1006.78 1006.83 1005.89 1005.78 1005.59 1005.36 1005.35 1005.26 1005.28 1004.93 1005.32 1005.23 1005.51 1006.20 1006.99 1006.94 1007.03 1007.14 1007.74 1008.48 1009.50 1011.02 1012.23
1019.84 1018.99 1018.14 1016.91 1013.84 1013.94 1012.40 1010.47 1009.82 1009.52 1009.23 1006.16 1004.49 1004.13 1004.21 1004.59 1004.81 1004.61 1004.97 1005.78 1005.90 1006.22 1006.12 1005.89 1004.89 1004.73 1004.52 1004.74 1004.97 1005.17 1005.00 1005.17 1005.28 1005.92 1006.38 1006.57 1007.89 1007.08 1007.20 1007.20 1007.51 1008.13 1009.26 1010.95 1012.19
1019.84 1019.11 1018.49 1018.40 1016.93 1014.69 1012.21 1011.02 1010.12 1009.94 1008.93 1004.47 1003.70 1003.08 1003.53 1004.46 1004.24 1004.44 1004.46 1005.12 1005.69 1005.77 1005.93 1005.25 1004.49 1004.26 1004.25 1004.51 1004.75 1005.31 1005.27 1005.84 1005.97 1006.67 1007.12 1007.56 1008.12 1007.04 1006.43 1007.43 1007.47 1007.73 1008.87 1010.32 1011.46
1019.71 1019.11 1018.75 1016.96 1016.54 1013.88 1012.51 1011.27 1010.56 1010.52 1007.32 1004.04 1003.38 1003.49 1004.09 1004.27 1004.15 1004.20 1004.54 1005.00 1005.36 1005.76 1005.42 1004.98 1004.06 1003.92 1003.75 1003.98 1004.42 1004.89 1005.66 1006.53 1007.12 1008.01 1009.01 1008.24 1008.52 1007.49 1006.84 1006.32 1006.62 1007.30 1008.47 1009.70 1010.99
1019.47 1018.70 1018.62 1017.52 1015.03 1012.85 1012.79 1012.06 1011.42 1009.67 1005.50 1004.09 1003.59 1003.59 1004.18 1004.43 1004.61 1004.67 1004.97 1005.61 1006.12 1006.23 1006.10 1004.97 1004.21 1003.72 1003.57 1004.02 1004.32 1005.38 1007.01 1008.48 1009.50 1009.94 1009.69 1008.50 1008.59 1006.72 1005.87 1005.50 1006.14 1006.93 1007.98 1009.20 1010.45
1019.15 1017.73 1015.92 1014.89 1013.78 1013.38 1013.29 1013.06 1011.62 1008.29 1006.09 1004.33 1003.50 1003.60 1004.04 1004.18 1004.46 1004.49 1005.08 1005.92 1006.05 1006.22 1006.41 1005.77 1004.72 1003.79 1003.43 1003.87 1004.78 1005.66 1007.26 1009.04 1010.12 1010.82 1010.15 1008.94 1007.92 1007.50 1006.32 1006.35 1006.65 1006.86 1007.58 1009.11 1010.38
1018.61 1016.52 1014.96 1012.36 1012.44 1013.04 1013.67 1012.94 1010.46 1007.87 1005.74 1005.01 1004.03 1004.06 1004.16 1004.14 1004.27 1004.45 1004.73 1005.32 1005.50 1005.51 1006.01 1005.45 1004.70 1003.60 1003.31 1003.79 1004.69 1005.90 1007.15 1008.10 1009.69 1010.21 1010.55 1009.65 1008.62 1007.99 1007.09 1007.24 1007.60 1007.93 1008.61 1009.77 1010.51
1019.48 1017.06 1013.79 1010.95 1011.06 1012.35 1013.15 1011.89 1009.72 1007.81 1007.02 1006.05 1005.26 1004.70 1004.98 1004.68 1004.60 1004.52 1004.58 1004.36 1004.52 1004.46 1004.79 1005.11 1005.25 1004.54 1003.89 1004.18 1004.81 1005.61 1006.77 1008.29 1009.89 1011.22 1011.35 1010.25 1009.18 1008.50 1008.30 1008.27 1008.45 1008.85 1009.15 1009.71 1010.43
1019.54 1016.58 1010.96 1009.55 1010.80 1011.71 1012.06 1010.80 1009.32 1007.81 1007.07 1006.26 1005.54 1005.40 1005.56 1005.55 1005.42 1005.01 1004.14 1003.80 1003.74 1003.81 1004.13 1004.84 1005.61 1005.47 1005.35 1005.01 1005.48 1006.24 1007.20 1008.47 1010.09 1011.17 1011.68 1011.24 1009.92 1007.93 1008.02 1008.14 1008.53 1008.70 1009.01 1009.54 1010.27
1018.60 1015.79 1010.23 1009.79 1011.12 1011.40 1011.18 1010.18 1008.84 1007.61 1006.66 1006.01 1005.27 1005.70 1006.14 1006.16 1006.14 1005.86 1004.98 1004.32 1003.81 1003.88 1004.31 1004.87 1005.90 1006.64 1006.20 1005.94 1005.99 1006.09 1007.03 1008.23 1010.20 1010.91 1011.06 1010.65 1009.71 1007.99 1007.68 1007.71 1007.98 1008.44 1008.79 1009.27 1009.76
1018.69 1015.30 1010.89 1010.46 1010.90 1011.08 1010.44 1009.49 1008.47 1007.44 1006.41 1005.88 1005.56 1005.77 1006.30 1006.72 1006.73 1005.88 1005.21 1004.65 1004.30 1004.61 1005.31 1005.78 1006.26 1007.20 1007.13 1006.95 1006.26 1006.35 1006.67 1007.38 1008.48 1009.55 1010.54 1010.59 1009.59 1008.26 1007.57 1007.57 1007.64 1008.04 1008.45 1008.94 1009.45
1019.31 1015.50 1012.21 1011.08 1010.96 1011.01 1010.73 1009.69 1008.31 1006.85 1006.20 1005.70 1005.60 1005.69 1006.43 1006.76 1006.70 1006.25 1005.67 1004.98 1004.91 1005.14 1005.65 1005.89 1007.03 1007.61 1007.80 1007.54 1007.05 1006.78 1006.82 1007.01 1007.92 1009.10 1009.46 1008.98 1008.28 1007.99 1007.68 1007.52 1007.48 1007.49 1007.89 1008.68 1009.39
1019.10 1015.85 1013.26 1012.54 1011.66 1011.25 1010.80 1010.01 1008.75 1007.69 1006.31 1005.61 1005.74 1006.07 1006.70 1007.17 1006.98 1006.83 1006.38 1005.71 1005.23 1005.64 1005.98 1006.66 1007.75 1007.93 1007.90 1007.51 1007.03 1006.60 1006.64 1006.91 1007.27 1007.56 1008.19 1008.00 1007.65 1007.09 1006.81 1006.80 1006.83 1006.98 1007.52 1008.46 1009.39
1018.99 1016.21 1014.97 1014.13 1012.61 1011.90 1010.83 1010.17 1009.08 1008.06 1007.63 1006.71 1006.66 1006.56 1006.60 1007.07 1007.01 1007.16 1007.02 1006.73 1006.60 1006.56 1006.73 1007.29 1007.97 1008.16 1008.12 1007.75 1007.17 1006.52 1006.22 1006.38 1006.29 1006.48 1006.19 1006.36 1006.36 1005.95 1005.79 1006.08 1006.58 1007.01 1007.77 1009.08 1010.32
1018.40 1017.50 1016.71 1014.64 1013.28 1012.40 1011.10 1010.20 1009.18 1008.35 1007.38 1007.01 1006.85 1007.05 1007.10 1006.95 1006.90 1007.11 1007.18 1007.17 1007.06 1007.24 1007.70 1008.16 1008.65 1009.13 1008.62 1008.26 1007.54 1006.04 1005.85 1005.78 1005.79 1005.73 1005.69 1005.85 1005.71 1005.61 1006.10 1006.62 1006.82 1007.47 1008.25 1009.72 1010.95
Wind_Speed
19 18 18 17 15 12 11 11 10 9 10 10 10 10 11 12 16 3 6 8 8 3 4 8 8 13 9 6 7 3 3 6 9 8 9 4 16 4 8 16 8 10 12 12 14
19 19 18 17 16 14 12 10 10 9 9 9 9 9 10 10 4 8 11 5 5 1 4 7 11 9 5 7 5 5 2 7 6 7 14 15 16 8 7 11 12 17 16 15 12
19 19 19 19 18 16 14 12 11 10 9 9 8 9 9 7 3 7 13 7 6 3 5 8 13 11 7 6 10 8 7 5 18 27 24 24 25 14 23 6 18 19 18 14 8
20 20 20 19 19 18 16 13 11 11 10 8 7 8 8 4 2 3 8 8 4 3 6 8 9 7 4 6 8 3 7 16 21 26 18 17 13 13 22 11 16 13 10 9 7
20 21 20 20 19 19 17 15 11 10 8 7 6 6 5 2 9 6 8 7 4 2 7 8 9 7 7 8 7 4 2 17 18 26 26 22 20 22 14 23 10 13 12 10 7
21 22 22 21 19 18 18 15 12 9 7 6 5 4 3 4 7 10 9 7 6 7 10 10 9 8 8 7 3 2 4 19 14 21 19 21 15 16 20 24 7 16 9 10 12
23 23 24 22 20 18 18 15 11 9 6 5 4 4 5 12 10 11 11 9 9 12 15 10 6 7 10 11 8 3 5 3 11 9 7 13 11 11 21 19 10 10 11 12 10
23 24 24 25 23 20 19 19 12 7 6 6 4 3 8 5 0 9 9 9 10 10 6 9 11 8 4 7 10 5 6 3 8 12 10 8 10 9 13 15 12 11 10 10 9
23 24 25 26 25 22 21 23 13 7 7 7 3 3 9 2 4 8 9 8 7 7 7 6 6 4 11 6 7 2 5 6 11 10 12 7 18 15 15 16 14 12 11 11 9
24 24 25 27 27 24 25 12 2 7 5 8 5 4 8 11 6 8 7 8 6 6 5 4 3 3 7 3 6 7 6 8 9 9 9 8 11 17 19 19 17 15 15 14 10
25 26 27 28 29 23 14 5 5 2 1 7 5 8 21 5 6 3 6 2 6 3 5 8 2 6 13 11 11 7 7 9 2 6 8 8 18 17 15 14 17 16 16 16 14
25 26 27 31 32 28 2 1 5 8 13 10 17 18 22 10 4 9 6 5 6 6 7 6 9 14 11 11 11 10 8 7 3 7 7 5 3 11 14 10 19 18 19 18 16
25 27 28 31 35 8 11 10 8 9 4 15 14 15 18 7 6 8 9 9 7 9 10 10 12 13 13 10 10 6 3 7 3 4 4 4 4 7 11 12 10 15 17 21 21
23 25 26 33 7 9 6 15 12 5 3 9 7 10 9 6 8 12 10 9 6 10 11 9 17 11 5 3 5 5 7 9 10 3 2 6 5 8 9 13 10 9 18 19 18
23 24 23 13 8 6 9 16 14 7 4 9 5 7 7 9 4 8 8 6 10 14 6 11 8 5 1 5 7 9 7 4 9 1 5 10 4 10 5 7 10 10 17 20 20
23 24 24 7 4 14 16 17 6 2 7 5 7 6 5 10 9 6 4 5 6 8 12 14 7 4 7 7 4 4 7 8 6 4 5 9 4 12 6 10 8 7 20 21 21
25 26 17 7 7 9 13 6 4 4 9 6 8 6 7 7 9 6 7 5 5 2 7 9 7 3 2 3 4 8 8 5 5 4 9 9 4 17 1 9 5 12 17 21 21
25 29 10 11 9 10 4 4 4 10 12 8 4 3 10 11 13 11 8 6 9 8 7 5 9 9 8 7 5 4 9 7 5 3 5 8 5 2 9 10 9 7 9 18 18
25 4 6 8 13 8 1 3 6 7 6 16 5 5 6 7 5 8 10 10 10 11 8 3 7 13 11 6 4 6 3 10 1 4 4 3 3 7 9 9 9 9 11 10 14
8 6 8 10 9 5 2 6 8 12 18 19 10 6 7 8 7 7 8 10 10 9 7 7 3 5 5 5 2 3 1 6 5 1 4 6 4 4 5 7 8 7 6 12 11
3 5 9 9 5 4 7 8 10 17 17 14 9 7 10 10 9 8 8 7 10 10 6 4 6 10 5 2 5 4 2 1 5 5 4 1 6 6 6 8 10 9 9 10 11
4 5 4 5 3 4 10 6 7 19 19 15 1 2 7 8 8 7 7 8 10 5 7 9 7 5 7 6 3 9 10 8 6 8 3 5 8 3 8 9 9 8 9 10 11
4 5 6 3 5 9 10 17 19 20 19 16 7 6 6 7 6 3 9 7 6 5 2 3 1 2 9 9 7 3 4 6 4 5 6 4 8 4 6 6 8 9 8 9 10
4 5 4 2 4 7 9 12 15 14 19 19 4 3 5 6 7 7 8 8 4 4 1 8 2 7 8 9 6 4 6 3 2 3 5 7 8 8 6 8 8 9 8 9 8
4 6 5 5 6 9 9 11 17 17 9 7 5 5 7 5 5 7 9 10 8 7 3 7 4 1 5 7 10 13 10 10 12 10 9 10 9 8 8 9 10 10 8 9 11
4 3 6 11 8 8 7 5 14 17 13 15 5 8 9 8 7 8 9 4 4 4 2 0 4 6 5 8 12 17 17 15 19 13 11 15 10 10 7 4 3 9 9 10 17
3 6 4 6 6 6 6 8 12 14 8 9 10 7 8 5 5 4 3 5 4 3 4 3 4 2 5 7 11 18 13 15 17 11 4 4 6 4 7 2 8 8 10 19 19
Wind_Direction
355 350 352 346 337 331 323 311 308 309 305 309 316 321 323 322 303 205 247 241 200 206 273 280 267 243 254 263 257 259 347 291 298 132 142 144 94 21 121 148 203 211 147 156 162
352 351 350 346 338 335 319 315 314 314 313 312 319 319 323 324 270 252 247 199 125 200 273 276 287 244 237 263 271 136 149 252 202 64 88 68 68 82 173 161 181 123 129 151 161
351 352 349 347 342 338 328 325 324 316 320 314 315 314 313 307 306 242 162 183 173 217 262 269 265 247 238 247 252 215 216 334 62 89 91 76 50 31 349 138 125 140 149 153 166
350 351 350 345 343 338 335 333 326 320 310 305 302 303 317 261 43 150 162 169 211 345 302 288 287 314 252 256 251 195 222 104 114 114 96 85 91 97 265 294 136 138 156 158 154
347 350 348 346 344 338 339 335 335 314 295 287 291 310 303 218 253 156 165 181 190 273 249 267 288 271 254 290 277 337 248 98 100 108 111 117 131 136 258 283 144 149 164 171 121
349 347 346 345 341 339 338 332 330 308 284 277 284 324 255 258 141 146 187 170 236 212 265 256 260 291 272 280 224 25 115 122 118 147 151 136 145 116 254 254 235 172 152 102 88
348 345 343 339 338 341 332 329 320 300 271 262 245 269 263 248 147 163 203 201 216 223 254 302 304 10 334 324 332 35 9 332 130 180 114 117 115 213 200 197 142 111 99 96 91
345 342 341 335 337 338 327 317 306 282 239 220 224 264 256 241 252 160 209 235 238 257 282 310 355 333 274 305 332 106 13 321 257 154 181 130 187 255 127 123 114 106 100 87 84
343 340 337 332 335 333 325 313 290 252 210 166 180 211 279 262 222 212 200 227 202 249 283 295 345 280 327 324 349 11 238 260 277 185 149 179 150 157 141 137 141 144 134 119 109
341 339 337 333 329 332 323 292 71 307 205 206 250 331 268 249 195 213 221 244 211 219 258 226 272 258 322 15 245 243 229 262 232 190 151 156 147 161 163 157 154 153 146 138 131
341 340 337 331 326 328 341 353 358 358 215 226 241 260 290 177 108 273 237 257 314 222 226 255 182 236 240 245 242 269 279 270 350 115 131 154 146 172 174 158 161 164 152 152 147
339 340 337 330 323 320 220 322 329 246 294 255 265 262 266 273 198 205 241 164 227 249 235 301 223 237 236 250 253 267 276 291 36 117 106 95 136 197 177 178 172 167 160 147 138
339 338 338 332 319 321 328 278 312 0 299 295 237 224 244 193 224 246 179 211 233 220 243 213 243 228 242 258 261 271 297 297 236 126 93 117 313 265 188 184 169 173 159 147 148
335 335 339 337 352 337 287 336 332 30 335 267 195 221 208 192 236 242 189 192 240 230 245 232 246 263 152 316 349 322 291 316 288 65 211 117 261 276 200 193 182 168 148 147 143
332 333 335 326 290 304 292 321 312 49 325 158 147 137 170 167 262 230 203 183 253 280 311 260 251 173 149 262 261 248 254 328 255 173 55 306 86 264 245 189 191 174 144 150 151
328 326 333 328 258 252 291 304 340 27 248 176 131 176 161 213 250 157 171 161 254 275 289 286 276 216 182 235 222 80 42 358 19 62 11 253 187 277 245 194 154 153 144 155 148
320 315 314 284 241 322 324 327 15 224 303 156 166 163 192 207 230 176 171 191 222 261 275 287 263 294 298 3 112 84 57 352 351 0 228 263 237 235 185 103 149 165 148 152 149
317 308 254 226 230 258 305 357 248 273 270 285 103 286 187 205 214 204 168 208 226 242 276 265 294 197 202 176 182 181 149 160 220 223 256 337 292 287 89 63 57 64 145 140 146
314 301 272 239 223 223 184 235 229 220 278 346 335 184 269 242 252 198 184 191 220 218 205 277 289 321 186 134 147 264 175 211 166 275 42 246 20 24 72 79 73 68 92 137 148
326 296 260 230 216 173 166 238 255 269 319 310 308 335 317 266 226 237 202 204 224 240 180 232 316 317 112 121 182 107 238 22 356 158 281 284 284 180 115 130 121 125 134 146 149
271 288 267 180 156 100 216 225 242 260 261 264 281 300 298 319 347 309 226 235 214 219 221 151 118 285 17 132 167 327 288 238 149 145 172 317 279 196 162 167 162 176 172 155 150
275 270 276 124 117 200 230 240 236 271 285 288 355 291 293 311 314 326 322 346 22 3 212 186 151 219 227 286 308 203 204 177 134 275 225 176 259 146 156 172 157 177 160 166 161
269 274 289 272 219 234 263 264 251 264 269 268 248 208 240 282 307 288 311 328 4 65 34 7 165 121 332 342 331 240 230 202 162 126 199 188 257 223 170 136 163 174 179 175 172
280 282 249 200 239 251 285 292 288 274 253 264 278 271 269 251 267 282 296 295 303 81 34 76 30 152 189 210 226 276 266 297 187 146 234 231 248 274 237 187 203 159 152 138 171
243 260 305 299 246 238 242 262 283 293 298 262 247 221 267 277 275 286 298 300 290 180 143 117 184 269 266 271 277 273 271 268 238 218 229 253 244 233 240 218 205 183 154 130 140
290 315 357 301 292 303 288 285 287 263 269 294 334 295 222 235 220 244 270 287 249 342 211 261 231 198 257 268 273 274 283 284 282 277 228 234 246 241 245 261 191 174 157 110 101
311 347 287 275 297 305 271 250 278 298 270 280 287 295 302 322 8 347 316 289 243 190 213 198 163 173 250 234 264 257 234 251 272 278 249 263 246 59 21 150 148 117 108 114 113